GW5910 Weather Reports


time (UTC)temp
C
wind
direction
speed
KPH
gust
KPH
rain 1hr
cm
rain 24hr
cm
rain mn
cm
humidity
%
barometer
mb
20260902195556 33 273 1.6 3.2 0.00 0.00 0.00 56 1017.0
20260902195456 33 248 1.6 3.2 0.00 0.00 0.00 56 1017.0
20260902195057 33 235 3.2 4.8 0.00 0.00 0.00 57 1017.0
20260902194556 33 235 1.6 3.2 0.00 0.00 0.00 58 1017.0
20260902194457 33 304 1.6 3.2 0.00 0.00 0.00 56 1017.0
20260902194056 33 247 3.2 4.8 0.00 0.00 0.00 56 1018.0
20260902193556 33 202 1.6 3.2 0.00 0.00 0.00 58 1018.0
20260902193356 33 250 1.6 3.2 0.00 0.00 0.00 56 1018.0
20260902193057 33 236 3.2 4.8 0.00 0.00 0.00 55 1018.0
20260902192956 33 264 3.2 4.8 0.00 0.00 0.00 56 1018.0
20260902192856 33 237 1.6 3.2 0.00 0.00 0.00 55 1018.0
20260902192757 33 280 3.2 9.7 0.00 0.00 0.00 55 1018.0
20260902192457 33 276 1.6 4.8 0.00 0.00 0.00 56 1018.0
20260902192356 33 255 4.8 6.4 0.00 0.00 0.00 55 1018.0
20260902191857 33 229 1.6 3.2 0.00 0.00 0.00 58 1018.0
20260902191357 33 274 3.2 6.4 0.00 0.00 0.00 57 1018.0
20260902190956 33 235 0.0 3.2 0.00 0.00 0.00 56 1018.0
20260902190856 33 220 1.6 3.2 0.00 0.00 0.00 56 1018.0
20260902190457 33 232 1.6 4.8 0.00 0.00 0.00 57 1018.0
20260902190358 33 196 1.6 4.8 0.00 0.00 0.00 56 1018.0
20260902185857 33 237 1.6 1.6 0.00 0.00 0.00 57 1018.0
20260902185356 33 270 3.2 4.8 0.00 0.00 0.00 57 1018.0
20260902184857 33 277 3.2 9.7 0.00 0.00 0.00 58 1018.0
20260902184757 33 201 1.6 4.8 0.00 0.00 0.00 59 1018.0
20260902184357 32 227 1.6 3.2 0.00 0.00 0.00 57 1018.0
20260902183857 32 219 1.6 3.2 0.00 0.00 0.00 57 1018.0
20260902183657 32 277 3.2 6.4 0.00 0.00 0.00 57 1018.0
20260902183557 32 277 3.2 6.4 0.00 0.00 0.00 57 1018.0
20260902183356 32 273 1.6 6.4 0.00 0.00 0.00 58 1018.0
20260902182956 33 262 3.2 6.4 0.00 0.00 0.00 57 1018.0
20260902182856 32 246 1.6 3.2 0.00 0.00 0.00 57 1018.0
20260902182756 32 257 1.6 3.2 0.00 0.00 0.00 60 1018.0
20260902182357 32 189 1.6 3.2 0.00 0.00 0.00 59 1018.0
20260902181857 32 143 1.6 3.2 0.00 0.00 0.00 60 1018.0
20260902181756 32 262 1.6 3.2 0.00 0.00 0.00 59 1018.0
20260902181357 32 268 3.2 3.2 0.00 0.00 0.00 58 1018.0
20260902181256 32 231 1.6 3.2 0.00 0.00 0.00 58 1018.0
20260902180857 32 271 3.2 4.8 0.00 0.00 0.00 57 1018.0
20260902180757 32 271 3.2 6.4 0.00 0.00 0.00 60 1018.0
20260902180256 32 286 3.2 6.4 0.00 0.00 0.00 59 1018.0
20260902180200 32 243 3.2 3.2 0.00 0.00 0.00 58 1018.0
20260902175657 32 240 3.2 6.4 0.00 0.00 0.00 61 1018.0
20260902175156 32 257 0.0 3.2 0.00 0.00 0.00 59 1018.0
20260902174857 32 191 1.6 3.2 0.00 0.00 0.00 62 1018.0
20260902174657 32 140 0.0 3.2 0.00 0.00 0.00 61 1018.0
20260902174556 32 251 0.0 3.2 0.00 0.00 0.00 60 1018.0
20260902174158 32 312 3.2 9.7 0.00 0.00 0.00 60 1018.0
20260902174058 32 360 0.0 0.0 0.00 0.00 0.00 60 1018.0
20260902173956 32 310 1.6 6.4 0.00 0.00 0.00 60 1018.0
20260902173658 32 114 1.6 3.2 0.00 0.00 0.00 59 1018.0
20260902173558 32 164 1.6 4.8 0.00 0.00 0.00 60 1018.0
20260902173457 32 218 0.0 3.2 0.00 0.00 0.00 59 1018.0
20260902173056 32 220 0.0 3.2 0.00 0.00 0.00 60 1019.0
20260902172757 32 251 3.2 4.8 0.00 0.00 0.00 60 1019.0
20260902172557 32 169 1.6 3.2 0.00 0.00 0.00 59 1019.0
20260902172057 32 171 1.6 4.8 0.00 0.00 0.00 60 1019.0
20260902171856 32 174 3.2 4.8 0.00 0.00 0.00 60 1019.0
20260902171657 32 330 3.2 4.8 0.00 0.00 0.00 59 1019.0
20260902171356 32 266 3.2 8.0 0.00 0.00 0.00 59 1019.0
20260902170857 32 253 1.6 4.8 0.00 0.00 0.00 61 1019.0
20260902170358 32 340 1.6 4.8 0.00 0.00 0.00 60 1019.0
20260902165957 32 292 1.6 4.8 0.00 0.00 0.00 61 1019.0
20260902165856 31 298 4.8 6.4 0.00 0.00 0.00 61 1019.0
20260902165357 31 175 0.0 3.2 0.00 0.00 0.00 62 1019.0
20260902164858 31 242 1.6 3.2 0.00 0.00 0.00 62 1019.0
20260902164657 31 217 3.2 4.8 0.00 0.00 0.00 62 1019.0
20260902164357 31 259 3.2 4.8 0.00 0.00 0.00 62 1019.0
20260902163957 31 241 3.2 6.4 0.00 0.00 0.00 63 1019.0
20260902163857 31 243 3.2 6.4 0.00 0.00 0.00 63 1019.0
20260902163756 31 260 3.2 4.8 0.00 0.00 0.00 64 1019.0
20260902163356 31 260 3.2 8.0 0.00 0.00 0.00 64 1019.0
20260902163257 31 160 0.0 1.6 0.00 0.00 0.00 65 1019.0
20260902162856 31 231 1.6 3.2 0.00 0.00 0.00 63 1019.0
20260902162657 31 246 3.2 4.8 0.00 0.00 0.00 63 1019.0
20260902162356 31 148 1.6 4.8 0.00 0.00 0.00 64 1019.0
20260902162257 31 247 1.6 3.2 0.00 0.00 0.00 64 1019.0
20260902161901 31 242 1.6 3.2 0.00 0.00 0.00 65 1019.0
20260902161556 31 242 3.2 4.8 0.00 0.00 0.00 65 1019.0
20260902161358 31 232 1.6 4.8 0.00 0.00 0.00 64 1019.0
20260902160856 31 263 1.6 4.8 0.00 0.00 0.00 64 1019.0
20260902160456 31 224 0.0 1.6 0.00 0.00 0.00 64 1019.0
20260902160356 31 235 1.6 4.8 0.00 0.00 0.00 64 1019.0
20260902155857 31 251 1.6 4.8 0.00 0.00 0.00 67 1019.0
20260902155359 31 247 3.2 6.4 0.00 0.00 0.00 65 1019.0
20260902155157 31 267 1.6 3.2 0.00 0.00 0.00 65 1019.0
20260902154856 31 255 4.8 11.3 0.00 0.00 0.00 64 1019.0
20260902154357 30 237 0.0 3.2 0.00 0.00 0.00 68 1019.0
20260902154056 30 303 1.6 6.4 0.00 0.00 0.00 67 1019.0
20260902153857 30 300 3.2 8.0 0.00 0.00 0.00 68 1019.0
20260902153657 30 164 0.0 1.6 0.00 0.00 0.00 69 1019.0
20260902153357 30 241 1.6 4.8 0.00 0.00 0.00 67 1019.0
20260902153157 30 285 3.2 4.8 0.00 0.00 0.00 67 1019.0
20260902152857 30 264 3.2 6.4 0.00 0.00 0.00 67 1019.0
20260902152357 30 262 1.6 6.4 0.00 0.00 0.00 70 1019.0
20260902151900 30 289 1.6 6.4 0.00 0.00 0.00 69 1019.0
20260902151757 30 266 1.6 3.2 0.00 0.00 0.00 71 1019.0
20260902151556 29 280 1.6 4.8 0.00 0.00 0.00 72 1019.0
20260902151357 29 276 3.2 6.4 0.00 0.00 0.00 73 1019.0
20260902151257 29 256 3.2 3.2 0.00 0.00 0.00 72 1019.0
20260902151157 29 279 3.2 4.8 0.00 0.00 0.00 72 1019.0
20260902150757 29 190 1.6 4.8 0.00 0.00 0.00 71 1019.0
20260902150257 29 252 0.0 1.6 0.00 0.00 0.00 72 1019.0
20260902145756 29 262 3.2 6.4 0.00 0.00 0.00 75 1019.0
20260902145256 28 230 0.0 1.6 0.00 0.00 0.00 76 1019.0
20260902145156 28 267 1.6 4.8 0.00 0.00 0.00 76 1019.0
20260902145056 28 166 0.0 1.6 0.00 0.00 0.00 75 1019.0
20260902144658 28 129 3.2 3.2 0.00 0.00 0.00 76 1019.0
20260902144357 28 120 3.2 3.2 0.00 0.00 0.00 76 1019.0
20260902144156 28 124 1.6 3.2 0.00 0.00 0.00 75 1019.0
20260902143956 28 129 1.6 1.6 0.00 0.00 0.00 77 1019.0
20260902143657 28 126 1.6 3.2 0.00 0.00 0.00 78 1019.0
20260902143458 28 133 1.6 3.2 0.00 0.00 0.00 78 1019.0
20260902142957 28 311 3.2 3.2 0.00 0.00 0.00 79 1019.0
20260902142856 28 318 3.2 3.2 0.00 0.00 0.00 78 1019.0
20260902142456 27 320 3.2 3.2 0.00 0.00 0.00 79 1019.0
20260902141943 27 248 3.2 3.2 0.00 0.00 0.00 80 1019.0
20260902141356 27 192 3.2 6.4 0.00 0.00 0.00 82 1019.0
20260902141057 26 192 3.2 6.4 0.00 0.00 0.00 84 1019.0
20260902140857 26 187 4.8 6.4 0.00 0.00 0.00 84 1019.0
20260902140556 26 196 4.8 6.4 0.00 0.00 0.00 84 1019.0
20260902140357 26 185 3.2 6.4 0.00 0.00 0.00 84 1019.0
20260902140156 26 193 3.2 6.4 0.00 0.00 0.00 84 1019.0
20260902135859 26 225 4.8 6.4 0.00 0.00 0.00 85 1019.0
20260902135756 26 224 4.8 4.8 0.00 0.00 0.00 85 1019.0
20260902135656 26 231 4.8 6.4 0.00 0.00 0.00 85 1019.0
20260902135356 26 231 4.8 6.4 0.00 0.00 0.00 85 1019.0
20260902134857 26 229 3.2 4.8 0.00 0.00 0.00 85 1019.0
20260902134756 25 224 3.2 6.4 0.00 0.00 0.00 85 1019.0
20260902134356 25 224 4.8 6.4 0.00 0.00 0.00 86 1019.0
20260902134256 25 228 4.8 6.4 0.00 0.00 0.00 86 1019.0
20260902134058 25 217 4.8 6.4 0.00 0.00 0.00 86 1019.0
20260902133856 25 222 3.2 6.4 0.00 0.00 0.00 86 1019.0
20260902133657 25 225 3.2 4.8 0.00 0.00 0.00 87 1019.0
20260902133157 25 241 3.2 3.2 0.00 0.00 0.00 86 1019.0
20260902132659 25 227 3.2 6.4 0.00 0.00 0.00 87 1019.0
20260902132200 25 214 3.2 4.8 0.00 0.00 0.00 88 1019.0
20260902132056 25 196 3.2 6.4 0.00 0.00 0.00 87 1019.0
20260902131857 24 195 1.6 3.2 0.00 0.00 0.00 88 1019.0
20260902131656 24 208 1.6 4.8 0.00 0.00 0.00 88 1019.0
20260902131357 24 222 1.6 3.2 0.00 0.00 0.00 89 1019.0
20260902130856 24 207 1.6 3.2 0.00 0.00 0.00 89 1019.0
20260902130759 24 203 1.6 6.4 0.00 0.00 0.00 89 1019.0
20260902130301 24 219 1.6 3.2 0.00 0.00 0.00 88 1019.0
20260902130159 24 217 1.6 4.8 0.00 0.00 0.00 88 1019.0
20260902125956 24 184 6.4 8.0 0.00 0.00 0.00 88 1019.0
20260902125756 24 187 4.8 8.0 0.00 0.00 0.00 88 1019.0
20260902125657 24 183 6.4 8.0 0.00 0.00 0.00 88 1019.0
20260902125257 24 181 4.8 8.0 0.00 0.00 0.00 88 1019.0
20260902125158 24 182 6.4 8.0 0.00 0.00 0.00 88 1019.0
20260902124957 24 182 4.8 6.4 0.00 0.00 0.00 87 1019.0
20260902124756 24 187 6.4 8.0 0.00 0.00 0.00 88 1019.0
20260902124656 24 182 6.4 8.0 0.00 0.00 0.00 88 1019.0
20260902124256 23 181 4.8 6.4 0.00 0.00 0.00 88 1019.0
20260902124157 23 183 4.8 8.0 0.00 0.00 0.00 88 1019.0
20260902124056 23 181 6.4 6.4 0.00 0.00 0.00 89 1019.0
20260902123856 23 177 3.2 6.4 0.00 0.00 0.00 89 1019.0
20260902123557 23 217 3.2 6.4 0.00 0.00 0.00 89 1019.0
20260902123257 23 218 3.2 4.8 0.00 0.00 0.00 90 1019.0
20260902123157 23 214 3.2 3.2 0.00 0.00 0.00 91 1019.0
20260902123057 23 224 3.2 3.2 0.00 0.00 0.00 91 1019.0
20260902122756 23 227 3.2 4.8 0.00 0.00 0.00 92 1019.0
20260902122557 22 218 3.2 4.8 0.00 0.00 0.00 92 1019.0
20260902122057 22 208 3.2 4.8 0.00 0.00 0.00 93 1019.0
20260902121856 22 191 1.6 4.8 0.00 0.00 0.00 93 1019.0
20260902121557 22 214 0.0 3.2 0.00 0.00 0.00 94 1019.0
20260902121457 22 231 1.6 4.8 0.00 0.00 0.00 94 1019.0
20260902121056 22 200 0.0 3.2 0.00 0.00 0.00 95 1019.0
20260902120856 22 205 1.6 3.2 0.00 0.00 0.00 95 1019.0
20260902120556 22 184 1.6 3.2 0.00 0.00 0.00 95 1019.0
20260902120157 22 231 1.6 3.2 0.00 0.00 0.00 95 1019.0
20260902120057 22 231 1.6 3.2 0.00 0.00 0.00 95 1019.0
20260902115656 21 214 1.6 3.2 0.00 0.00 0.00 96 1019.0
20260902115556 21 199 0.0 1.6 0.00 0.00 0.00 96 1019.0
20260902115457 21 187 0.0 3.2 0.00 0.00 0.00 96 1019.0
20260902114956 21 234 0.0 1.6 0.00 0.00 0.00 96 1019.0
20260902114457 21 208 0.0 1.6 0.00 0.00 0.00 97 1019.0
20260902114356 21 171 0.0 3.2 0.00 0.00 0.00 97 1019.0
20260902113956 21 329 0.0 0.0 0.00 0.00 0.00 97 1019.0
20260902113856 21 360 0.0 0.0 0.00 0.00 0.00 97 1019.0
20260902113457 21 206 0.0 3.2 0.00 0.00 0.00 97 1018.0
20260902113356 21 299 0.0 0.0 0.00 0.00 0.00 97 1018.0
20260902113156 21 293 0.0 1.6 0.00 0.00 0.00 97 1018.0
20260902112856 21 80 0.0 0.0 0.00 0.00 0.00 97 1018.0
20260902112600 21 212 0.0 3.2 0.00 0.00 0.00 97 1018.0
20260902112356 21 225 0.0 1.6 0.00 0.00 0.00 97 1018.0
20260902112256 21 233 0.0 3.2 0.00 0.00 0.00 96 1018.0
20260902111756 21 360 0.0 0.0 0.00 0.00 0.00 97 1018.0
20260902111256 21 248 0.0 1.6 0.00 0.00 0.00 97 1018.0
20260902111056 21 241 0.0 3.2 0.00 0.00 0.00 97 1018.0
20260902110957 21 224 0.0 1.6 0.00 0.00 0.00 97 1018.0
20260902110656 21 260 0.0 3.2 0.00 0.00 0.00 97 1018.0
20260902110158 21 210 0.0 1.6 0.00 0.00 0.00 96 1018.0
20260902105656 21 221 0.0 1.6 0.00 0.00 0.00 97 1018.0
20260902105556 21 215 1.6 3.2 0.00 0.00 0.00 97 1018.0
20260902105156 21 246 0.0 3.2 0.00 0.00 0.00 97 1018.0
20260902104957 21 200 0.0 3.2 0.00 0.00 0.00 97 1018.0
20260902104656 21 130 0.0 1.6 0.00 0.00 0.00 97 1018.0
20260902104256 21 205 0.0 3.2 0.00 0.00 0.00 97 1018.0
20260902104156 21 187 0.0 1.6 0.00 0.00 0.00 97 1018.0
20260902103656 21 143 0.0 1.6 0.00 0.00 0.00 97 1018.0
20260902103156 21 360 0.0 0.0 0.00 0.00 0.00 97 1018.0
20260902102757 21 360 0.0 0.0 0.00 0.00 0.00 97 1018.0
20260902102656 21 360 0.0 0.0 0.00 0.00 0.00 97 1018.0
20260902102456 21 360 0.0 0.0 0.00 0.00 0.00 96 1018.0
20260902102157 21 149 0.0 1.6 0.00 0.00 0.00 96 1018.0
20260902101856 21 139 0.0 1.6 0.00 0.00 0.00 96 1018.0
20260902101756 21 155 0.0 3.2 0.00 0.00 0.00 96 1018.0
20260902101657 21 360 0.0 0.0 0.00 0.00 0.00 96 1018.0
20260902101456 21 360 0.0 0.0 0.00 0.00 0.00 96 1018.0
20260902101256 21 143 0.0 1.6 0.00 0.00 0.00 96 1018.0
20260902100956 21 360 0.0 0.0 0.00 0.00 0.00 96 1018.0
20260902100757 21 360 0.0 0.0 0.00 0.00 0.00 96 1018.0
20260902100457 21 344 0.0 3.2 0.00 0.00 0.00 96 1018.0
20260902100258 21 360 0.0 0.0 0.00 0.00 0.00 96 1018.0
20260902095956 21 121 0.0 0.0 0.00 0.00 0.00 96 1018.0
20260902095557 21 66 0.0 3.2 0.00 0.00 0.00 96 1018.0
20260902095456 21 360 0.0 0.0 0.00 0.00 0.00 96 1018.0
20260902095057 21 271 0.0 1.6 0.00 0.00 0.00 96 1018.0
20260902094956 21 360 0.0 0.0 0.00 0.00 0.00 96 1018.0
20260902094505 21 360 0.0 0.0 0.00 0.00 0.00 96 1018.0
20260902094256 21 200 0.0 1.6 0.00 0.00 0.00 96 1018.0
20260902093756 21 360 0.0 0.0 0.00 0.00 0.00 96 1018.0
20260902093258 21 360 0.0 0.0 0.00 0.00 0.00 96 1018.0
20260902092756 21 360 0.0 0.0 0.00 0.00 0.00 96 1018.0
20260902092556 21 272 0.0 1.6 0.00 0.00 0.00 96 1018.0
20260902092257 22 360 0.0 0.0 0.00 0.00 0.00 95 1018.0
20260902092058 22 360 0.0 0.0 0.00 0.00 0.00 95 1018.0
20260902091756 22 360 0.0 0.0 0.00 0.00 0.00 96 1018.0
20260902091657 22 210 1.6 3.2 0.00 0.00 0.00 96 1018.0
20260902091556 22 181 0.0 3.2 0.00 0.00 0.00 96 1018.0
20260902091256 22 171 0.0 1.6 0.00 0.00 0.00 95 1018.0
20260902090757 22 167 0.0 1.6 0.00 0.00 0.00 96 1018.0
20260902090657 22 168 0.0 1.6 0.00 0.00 0.00 96 1018.0
20260902090257 22 232 0.0 1.6 0.00 0.00 0.00 96 1018.0
20260902090057 22 167 0.0 1.6 0.00 0.00 0.00 96 1018.0
20260902085757 22 139 0.0 1.6 0.00 0.00 0.00 96 1018.0
20260902085556 22 360 0.0 0.0 0.00 0.00 0.00 96 1018.0
20260902085156 22 360 0.0 0.0 0.00 0.00 0.00 96 1018.0
20260902085057 22 175 0.0 1.6 0.00 0.00 0.00 95 1018.0
20260902084756 22 335 0.0 0.0 0.00 0.00 0.00 95 1018.0
20260902084558 22 230 0.0 1.6 0.00 0.00 0.00 95 1018.0
20260902084156 22 327 0.0 0.0 0.00 0.00 0.00 96 1018.0
20260902084056 22 305 0.0 1.6 0.00 0.00 0.00 96 1018.0
20260902083557 22 187 0.0 1.6 0.00 0.00 0.00 95 1018.0
20260902083256 22 177 0.0 1.6 0.00 0.00 0.00 95 1018.0
20260902083057 22 168 0.0 1.6 0.00 0.00 0.00 95 1018.0
20260902082957 22 360 0.0 0.0 0.00 0.00 0.00 95 1018.0
20260902082556 22 125 0.0 1.6 0.00 0.00 0.00 95 1018.0
20260902082456 22 360 0.0 0.0 0.00 0.00 0.00 95 1018.0
20260902082057 22 129 1.6 1.6 0.00 0.00 0.00 95 1018.0
20260902081857 22 132 1.6 3.2 0.00 0.00 0.00 95 1018.0
20260902081556 22 137 1.6 3.2 0.00 0.00 0.00 95 1018.0
20260902081256 22 143 0.0 1.6 0.00 0.00 0.00 95 1018.0
20260902081157 22 156 0.0 1.6 0.00 0.00 0.00 95 1018.0
20260902080856 22 185 0.0 1.6 0.00 0.00 0.00 95 1018.0
20260902080356 22 171 0.0 1.6 0.00 0.00 0.00 95 1018.0
20260902075856 22 101 0.0 1.6 0.00 0.00 0.00 95 1017.0
20260902075756 22 178 0.0 1.6 0.00 0.00 0.00 95 1018.0
20260902075256 22 200 0.0 0.0 0.00 0.00 0.00 95 1018.0
20260902075159 22 306 0.0 0.0 0.00 0.00 0.00 95 1018.0
20260902074857 22 207 0.0 1.6 0.00 0.00 0.00 95 1018.0
20260902074756 22 360 0.0 0.0 0.00 0.00 0.00 95 1018.0
20260902074656 22 157 0.0 1.6 0.00 0.00 0.00 95 1018.0
20260902074257 22 360 0.0 0.0 0.00 0.00 0.00 95 1018.0
20260902073757 22 182 0.0 1.6 0.00 0.00 0.00 95 1017.0
20260902073656 22 360 0.0 0.0 0.00 0.00 0.00 95 1017.0
20260902073157 22 360 0.0 0.0 0.00 0.00 0.00 95 1017.0
20260902072857 22 147 0.0 3.2 0.00 0.00 0.00 95 1017.0
20260902072657 22 167 0.0 1.6 0.00 0.00 0.00 95 1018.0
20260902072156 22 136 0.0 0.0 0.00 0.00 0.00 95 1018.0
20260902072057 22 150 0.0 1.6 0.00 0.00 0.00 95 1018.0
20260902071556 22 352 0.0 1.6 0.00 0.00 0.00 95 1018.0
20260902071456 22 360 0.0 0.0 0.00 0.00 0.00 95 1018.0
20260902070956 22 149 0.0 1.6 0.00 0.00 0.00 95 1018.0
20260902070857 22 335 0.0 0.0 0.00 0.00 0.00 95 1018.0
20260902070356 22 360 0.0 0.0 0.00 0.00 0.00 95 1018.0
20260902070257 22 360 0.0 0.0 0.00 0.00 0.00 95 1018.0
20260902065757 22 144 0.0 1.6 0.00 0.00 0.00 95 1018.0
20260902065556 22 110 0.0 0.0 0.00 0.00 0.00 95 1018.0
20260902065256 22 360 0.0 0.0 0.00 0.00 0.00 95 1018.0
20260902064757 22 360 0.0 0.0 0.00 0.00 0.00 95 1018.0
20260902064258 22 190 0.0 0.0 0.00 0.00 0.00 95 1018.0
20260902064156 22 155 0.0 3.2 0.00 0.00 0.00 95 1018.0
20260902063656 22 360 0.0 0.0 0.00 0.00 0.00 95 1018.0
20260902063157 22 360 0.0 0.0 0.00 0.00 0.00 94 1018.0
20260902062655 22 77 0.0 0.0 0.00 0.00 0.00 94 1018.0
20260902062156 22 287 0.0 1.6 0.00 0.00 0.00 94 1018.0
20260902061656 22 360 0.0 0.0 0.00 0.00 0.00 94 1018.0
20260902061157 22 315 0.0 3.2 0.00 0.00 0.00 94 1018.0
20260902061056 22 329 0.0 0.0 0.00 0.00 0.00 94 1018.0
20260902060556 22 360 0.0 0.0 0.00 0.00 0.00 94 1018.0
20260902060056 22 101 0.0 0.0 0.00 0.00 0.00 94 1018.0
20260902055958 23 360 0.0 0.0 0.00 0.00 0.00 94 1018.0
20260902055757 23 360 0.0 0.0 0.00 0.00 0.00 94 1018.0
20260902055557 23 13 0.0 1.6 0.00 0.00 0.00 94 1018.0
20260902055056 23 314 0.0 0.0 0.00 0.00 0.00 94 1018.0
20260902054857 23 27 0.0 1.6 0.00 0.00 0.00 94 1018.0
20260902054557 23 116 0.0 3.2 0.00 0.00 0.00 94 1018.0
20260902054057 23 129 0.0 1.6 0.00 0.00 0.00 93 1018.0
20260902053556 23 134 0.0 1.6 0.00 0.00 0.00 93 1018.0
20260902053257 23 121 0.0 1.6 0.00 0.00 0.00 93 1018.0
20260902053156 23 111 0.0 1.6 0.00 0.00 0.00 93 1018.0
20260902053055 23 360 0.0 0.0 0.00 0.00 0.00 93 1018.0
20260902052957 23 347 0.0 3.2 0.00 0.00 0.00 93 1018.0
20260902052556 23 360 0.0 0.0 0.00 0.00 0.00 93 1018.0
20260902052459 23 293 0.0 1.6 0.00 0.00 0.00 93 1018.0
20260902052056 23 360 0.0 0.0 0.00 0.00 0.00 93 1018.0
20260902051956 23 360 0.0 0.0 0.00 0.00 0.00 93 1018.0
20260902051856 23 323 0.0 0.0 0.00 0.00 0.00 93 1018.0
20260902051556 23 218 0.0 0.0 0.00 0.00 0.00 93 1018.0
20260902051258 23 154 0.0 1.6 0.00 0.00 0.00 93 1018.0
20260902051057 23 360 0.0 0.0 0.00 0.00 0.00 93 1018.0
20260902050957 23 360 0.0 0.0 0.00 0.00 0.00 93 1018.0
20260902050657 23 360 0.0 0.0 0.00 0.00 0.00 93 1018.0
20260902050556 23 360 0.0 0.0 0.00 0.00 0.00 93 1018.0
20260902050457 23 360 0.0 0.0 0.00 0.00 0.00 93 1018.0
20260902045957 23 311 0.0 1.6 0.00 0.00 0.00 93 1018.0
20260902045856 23 76 0.0 0.0 0.00 0.00 0.00 93 1018.0
20260902045456 23 282 0.0 1.6 0.00 0.00 0.00 93 1018.0
20260902045357 23 241 0.0 1.6 0.00 0.00 0.00 93 1018.0
20260902044956 23 319 0.0 1.6 0.00 0.00 0.00 93 1018.0
20260902044657 23 360 0.0 0.0 0.00 0.00 0.00 93 1018.0
20260902044357 23 100 0.0 3.2 0.00 0.00 0.00 93 1018.0
20260902044056 23 165 0.0 0.0 0.00 0.00 0.00 93 1018.0
20260902043858 23 226 1.6 3.2 0.00 0.00 0.00 93 1018.0
20260902043356 23 194 0.0 1.6 0.00 0.00 0.00 92 1018.0
20260902043257 23 285 0.0 4.8 0.00 0.00 0.00 92 1018.0
20260902042856 23 360 0.0 0.0 0.00 0.00 0.00 92 1018.0
20260902042456 23 360 0.0 0.0 0.00 0.00 0.00 92 1018.0
20260902042357 23 285 0.0 1.6 0.00 0.00 0.00 92 1018.0
20260902042257 23 280 0.0 1.6 0.00 0.00 0.00 92 1018.0
20260902041858 23 182 0.0 0.0 0.00 0.00 0.00 92 1018.0
20260902041357 23 129 0.0 1.6 0.00 0.00 0.00 92 1018.0
20260902041257 23 164 0.0 1.6 0.00 0.00 0.00 92 1018.0
20260902041157 23 169 0.0 3.2 0.00 0.00 0.00 92 1018.0
20260902040757 23 161 0.0 1.6 0.00 0.00 0.00 92 1018.0
20260902040457 23 160 0.0 0.0 0.00 0.00 0.00 92 1018.0
20260902040257 23 126 0.0 1.6 0.00 0.00 0.00 92 1018.0
20260902035756 23 147 0.0 3.2 0.00 0.00 0.00 92 1018.0
20260902035256 23 137 0.0 1.6 0.00 0.00 0.00 92 1018.0
20260902034758 24 170 0.0 0.0 0.00 0.00 0.00 91 1018.0
20260902034257 24 167 0.0 6.4 0.00 0.00 0.00 91 1018.0
20260902034057 24 360 0.0 0.0 0.00 0.00 0.00 91 1018.0
20260902033756 24 135 1.6 3.2 0.00 0.00 0.00 91 1018.0
20260902033356 24 360 0.0 0.0 0.00 0.00 0.00 91 1018.0
20260902033256 24 135 0.0 3.2 0.00 0.00 0.00 91 1018.0
20260902033157 24 147 0.0 3.2 0.00 0.00 0.00 91 1018.0
20260902032756 24 360 0.0 0.0 0.00 0.00 0.00 91 1018.0
20260902032256 24 151 0.0 3.2 0.00 0.00 0.00 91 1018.0
20260902031956 24 155 1.6 3.2 0.00 0.00 0.00 90 1018.0
20260902031757 24 162 1.6 3.2 0.00 0.00 0.00 90 1018.0
20260902031256 24 157 1.6 3.2 0.00 0.00 0.00 90 1018.0
20260902031056 24 155 1.6 3.2 0.00 0.00 0.00 90 1018.0
20260902030656 24 156 1.6 3.2 0.00 0.00 0.00 89 1018.0
20260902030456 24 159 1.6 3.2 0.00 0.00 0.00 89 1018.0
20260902030157 25 155 1.6 3.2 0.00 0.00 0.00 89 1018.0
20260902025757 25 155 1.6 3.2 0.00 0.00 0.00 89 1018.0
20260902025658 25 154 1.6 3.2 0.00 0.00 0.00 89 1018.0
20260902025556 25 163 1.6 3.2 0.00 0.00 0.00 89 1018.0
20260902025357 25 151 1.6 3.2 0.00 0.00 0.00 89 1018.0
20260902025158 25 158 1.6 3.2 0.00 0.00 0.00 89 1018.0
20260902024759 25 360 0.0 0.0 0.00 0.00 0.00 88 1018.0
20260902024656 25 360 0.0 0.0 0.00 0.00 0.00 88 1018.0
20260902024157 25 141 1.6 4.8 0.00 0.00 0.00 88 1018.0
20260902023956 25 138 3.2 6.4 0.00 0.00 0.00 88 1018.0
20260902023657 25 136 3.2 4.8 0.00 0.00 0.00 88 1018.0
20260902023457 25 146 1.6 6.4 0.00 0.00 0.00 88 1018.0
20260902023156 25 136 3.2 4.8 0.00 0.00 0.00 87 1018.0
20260902022856 25 282 0.0 0.0 0.00 0.00 0.00 87 1018.0
20260902022657 25 129 0.0 3.2 0.00 0.00 0.00 86 1018.0
20260902022156 25 316 0.0 3.2 0.00 0.00 0.00 86 1018.0
20260902022056 25 332 1.6 3.2 0.00 0.00 0.00 86 1018.0
20260902021556 25 322 0.0 1.6 0.00 0.00 0.00 86 1018.0
20260902021257 25 317 1.6 3.2 0.00 0.00 0.00 85 1018.0
20260902021057 25 144 0.0 4.8 0.00 0.00 0.00 85 1018.0
20260902020557 26 321 0.0 0.0 0.00 0.00 0.00 85 1018.0
20260902020057 26 322 1.6 3.2 0.00 0.00 0.00 84 1018.0
20260902015756 26 360 0.0 0.0 0.00 0.00 0.00 84 1018.0
20260902015556 26 146 1.6 6.4 0.00 0.00 0.00 84 1018.0
20260902015456 26 158 3.2 6.4 0.00 0.00 0.00 83 1018.0
20260902015157 26 339 0.0 3.2 0.00 0.00 0.00 83 1018.0
20260902014956 26 240 1.6 3.2 0.00 0.00 0.00 83 1018.0
20260902014456 26 145 1.6 4.8 0.00 0.00 0.00 82 1018.0
20260902014357 26 143 1.6 4.8 0.00 0.00 0.00 82 1018.0
20260902014005 26 145 1.6 4.8 0.00 0.00 0.00 82 1018.0
20260902013456 26 132 1.6 3.2 0.00 0.00 0.00 81 1018.0
20260902013157 26 255 1.6 4.8 0.00 0.00 0.00 81 1018.0
20260902012958 26 272 1.6 4.8 0.00 0.00 0.00 81 1018.0
20260902012456 26 280 3.2 6.4 0.00 0.00 0.00 81 1017.0
20260902012356 26 165 3.2 6.4 0.00 0.00 0.00 81 1017.0
20260902011958 26 153 1.6 3.2 0.00 0.00 0.00 80 1017.0
20260902011458 26 150 1.6 4.8 0.00 0.00 0.00 80 1017.0
20260902010956 26 137 0.0 3.2 0.00 0.00 0.00 82 1017.0
20260902010457 26 143 0.0 3.2 0.00 0.00 0.00 81 1017.0
20260902005957 26 135 0.0 3.2 0.00 0.00 0.00 82 1017.0
20260902005756 26 147 3.2 4.8 0.00 0.00 0.00 82 1017.0
20260902005356 26 162 1.6 3.2 0.00 0.00 0.00 82 1017.0
20260902005056 26 138 1.6 4.8 0.00 0.00 0.00 82 1017.0
20260902004956 26 170 3.2 4.8 0.00 0.00 0.00 82 1017.0
20260902004856 26 142 0.0 3.2 0.00 0.00 0.00 82 1017.0
20260902004356 27 161 0.0 1.6 0.00 0.00 0.00 81 1017.0
20260902004156 27 182 0.0 1.6 0.00 0.00 0.00 81 1017.0
20260902003858 27 282 0.0 1.6 0.00 0.00 0.00 80 1017.0
20260902003456 27 360 0.0 0.0 0.00 0.00 0.00 81 1017.0
20260902003356 27 153 0.0 1.6 0.00 0.00 0.00 81 1017.0
20260902002856 27 140 0.0 3.2 0.00 0.00 0.00 79 1017.0
20260902002356 27 360 0.0 0.0 0.00 0.00 0.00 79 1017.0
20260902002057 27 130 0.0 1.6 0.00 0.00 0.00 80 1017.0
20260902001857 27 154 0.0 1.6 0.00 0.00 0.00 80 1017.0
20260902001656 27 170 0.0 0.0 0.00 0.00 0.00 80 1017.0
20260902001357 28 147 0.0 1.6 0.00 0.00 0.00 77 1017.0
20260902001157 28 174 0.0 1.6 0.00 0.00 0.00 79 1017.0
20260902000856 28 360 0.0 0.0 0.00 0.00 0.00 78 1017.0
20260902000456 28 360 0.0 0.0 0.00 0.00 0.00 77 1017.0
20260902000359 28 133 0.0 0.0 0.00 0.00 0.00 76 1017.0
20260901235856 28 153 1.6 4.8 0.00 0.00 0.00 75 1017.0
20260901235656 28 150 0.0 3.2 0.00 0.00 0.00 75 1017.0
20260901235356 28 144 1.6 3.2 0.00 0.00 0.00 76 1017.0
20260901234857 28 136 0.0 3.2 0.00 0.00 0.00 75 1017.0
20260901234556 28 139 0.0 0.0 0.00 0.00 0.00 74 1017.0
20260901234456 29 143 1.6 3.2 0.00 0.00 0.00 74 1017.0
20260901234156 29 141 0.0 3.2 0.00 0.00 0.00 74 1017.0
20260901233656 29 137 1.6 3.2 0.00 0.00 0.00 73 1017.0
20260901233557 29 138 0.0 1.6 0.00 0.00 0.00 72 1017.0
20260901233256 30 170 0.0 3.2 0.00 0.00 0.00 71 1018.0
20260901233156 30 143 0.0 3.2 0.00 0.00 0.00 71 1018.0
20260901232956 30 141 0.0 1.6 0.00 0.00 0.00 71 1018.0
20260901232556 30 155 0.0 1.6 0.00 0.00 0.00 70 1018.0
20260901232456 30 143 0.0 1.6 0.00 0.00 0.00 69 1018.0
20260901231956 30 153 0.0 1.6 0.00 0.00 0.00 68 1018.0
20260901231758 30 120 0.0 3.2 0.00 0.00 0.00 68 1018.0
20260901231457 30 360 0.0 0.0 0.00 0.00 0.00 67 1018.0
20260901231256 30 150 0.0 1.6 0.00 0.00 0.00 67 1018.0
20260901231156 30 145 0.0 1.6 0.00 0.00 0.00 66 1018.0
20260901230956 30 360 0.0 0.0 0.00 0.00 0.00 67 1018.0
20260901230456 31 124 0.0 1.6 0.00 0.00 0.00 65 1018.0
20260901230356 31 130 0.0 3.2 0.00 0.00 0.00 66 1018.0
20260901230256 31 182 0.0 1.6 0.00 0.00 0.00 66 1018.0
20260901225957 31 137 0.0 3.2 0.00 0.00 0.00 64 1018.0
20260901225557 31 155 0.0 1.6 0.00 0.00 0.00 63 1018.0
20260901225456 31 360 0.0 0.0 0.00 0.00 0.00 63 1018.0
20260901225358 31 158 0.0 1.6 0.00 0.00 0.00 62 1018.0
20260901224956 32 360 0.0 0.0 0.00 0.00 0.00 61 1018.0
20260901224856 32 249 0.0 1.6 0.00 0.00 0.00 60 1018.0
20260901224356 32 360 0.0 0.0 0.00 0.00 0.00 60 1017.0
20260901223856 32 261 1.6 3.2 0.00 0.00 0.00 58 1017.0
20260901223357 33 250 1.6 3.2 0.00 0.00 0.00 56 1017.0
20260901222858 33 260 1.6 3.2 0.00 0.00 0.00 56 1017.0
20260901222656 33 249 3.2 4.8 0.00 0.00 0.00 54 1017.0
20260901222457 33 211 0.0 3.2 0.00 0.00 0.00 55 1017.0
20260901222356 33 230 0.0 1.6 0.00 0.00 0.00 55 1017.0
20260901222156 33 172 0.0 0.0 0.00 0.00 0.00 55 1017.0
20260901222056 33 230 1.6 4.8 0.00 0.00 0.00 55 1017.0
20260901221556 33 199 1.6 3.2 0.00 0.00 0.00 57 1017.0
20260901221056 33 137 0.0 3.2 0.00 0.00 0.00 57 1017.0
20260901220957 33 149 0.0 1.6 0.00 0.00 0.00 57 1017.0
20260901220557 33 235 0.0 1.6 0.00 0.00 0.00 55 1017.0
20260901220056 33 236 1.6 3.2 0.00 0.00 0.00 56 1017.0
20260901215956 33 248 0.0 3.2 0.00 0.00 0.00 55 1017.0
20260901215856 33 227 1.6 3.2 0.00 0.00 0.00 56 1017.0
20260901215357 33 183 0.0 1.6 0.00 0.00 0.00 55 1017.0
20260901215057 33 176 0.0 1.6 0.00 0.00 0.00 55 1017.0
20260901214856 33 186 1.6 3.2 0.00 0.00 0.00 57 1017.0
20260901214756 33 204 0.0 1.6 0.00 0.00 0.00 54 1017.0
20260901214256 33 220 0.0 1.6 0.00 0.00 0.00 55 1017.0
20260901214158 33 213 1.6 3.2 0.00 0.00 0.00 55 1017.0
20260901213656 34 132 0.0 1.6 0.00 0.00 0.00 56 1017.0
20260901213356 34 239 3.2 4.8 0.00 0.00 0.00 52 1017.0
20260901213157 34 235 1.6 3.2 0.00 0.00 0.00 53 1017.0
20260901213057 34 228 1.6 3.2 0.00 0.00 0.00 52 1017.0
20260901212656 34 167 1.6 3.2 0.00 0.00 0.00 52 1017.0
20260901212456 34 141 0.0 3.2 0.00 0.00 0.00 53 1017.0
20260901212357 34 149 0.0 1.6 0.00 0.00 0.00 51 1017.0
20260901212157 34 242 1.6 3.2 0.00 0.00 0.00 52 1017.0
20260901211657 34 188 0.0 3.2 0.00 0.00 0.00 52 1017.0
20260901211557 34 171 0.0 3.2 0.00 0.00 0.00 54 1017.0
20260901211056 33 225 1.6 3.2 0.00 0.00 0.00 54 1017.0
20260901210957 33 271 1.6 6.4 0.00 0.00 0.00 54 1017.0
20260901210556 33 199 1.6 3.2 0.00 0.00 0.00 54 1017.0
20260901210357 33 228 1.6 3.2 0.00 0.00 0.00 53 1017.0
20260901210057 33 243 1.6 3.2 0.00 0.00 0.00 55 1017.0
20260901205656 32 245 0.0 3.2 0.00 0.00 0.00 54 1017.0
20260901205556 32 225 1.6 3.2 0.00 0.00 0.00 55 1017.0
20260901205056 32 259 1.6 4.8 0.00 0.00 0.00 55 1017.0
20260901204756 32 168 1.6 3.2 0.00 0.00 0.00 55 1018.0
20260901204557 32 233 0.0 1.6 0.00 0.00 0.00 57 1018.0
20260901204057 32 183 0.0 1.6 0.00 0.00 0.00 56 1018.0
20260901203556 32 156 3.2 3.2 0.00 0.00 0.00 56 1018.0
20260901203356 32 238 0.0 1.6 0.00 0.00 0.00 55 1018.0
20260901203057 32 177 1.6 4.8 0.00 0.00 0.00 57 1018.0
20260901203000 33 218 0.0 1.6 0.00 0.00 0.00 57 1018.0
20260901202856 33 261 3.2 3.2 0.00 0.00 0.00 56 1018.0
20260901202557 32 267 1.6 4.8 0.00 0.00 0.00 56 1018.0
20260901202458 32 332 3.2 6.4 0.00 0.00 0.00 56 1018.0
20260901202356 32 260 1.6 4.8 0.00 0.00 0.00 56 1018.0
20260901202256 32 245 0.0 1.6 0.00 0.00 0.00 55 1018.0
20260901201858 33 143 0.0 3.2 0.00 0.00 0.00 53 1018.0
20260901201757 33 199 1.6 3.2 0.00 0.00 0.00 54 1018.0
20260901201657 33 192 1.6 3.2 0.00 0.00 0.00 54 1018.0
20260901201456 33 196 1.6 3.2 0.00 0.00 0.00 54 1018.0
20260901201256 33 233 1.6 3.2 0.00 0.00 0.00 54 1018.0
20260901200756 32 234 1.6 4.8 0.00 0.00 0.00 55 1018.0
20260901200656 32 255 3.2 4.8 0.00 0.00 0.00 55 1018.0
20260901200157 32 183 1.6 3.2 0.00 0.00 0.00 54 1018.0
20260901200056 32 173 1.6 3.2 0.00 0.00 0.00 55 1018.0